Orumieh, Iran

4:04 AM IRST on December 11, 2016 (GMT +0330)
Orumieh

Weather History for OITR - January, 2014

Change the Weather History Date:

Saturday, January 11, 2014

  Actual Average Record
Temperature  
Mean Temperature 18 °F -  
Max Temperature 25 °F 36 °F - ()
Min Temperature 8 °F 20 °F - ()
Degree Days  
Heating Degree Days 48    
Moisture  
Dew Point 11 °F    
Average Humidity 80    
Maximum Humidity 95    
Minimum Humidity 59    
Precipitation  
Precipitation 0.00 in 0.04 in - ()
Sea Level Pressure  
Sea Level Pressure 30.19 in    
Wind  
Wind Speed 4 mph ()    
Max Wind Speed 7 mph    
Max Gust Speed -    
Visibility 1.3 miles    
Events Fog    
T = Trace of Precipitation, MM = Missing Value Source: Averaged Metar Reports

Daily Weather History Graph

Daily Weather History Graph

Search for Another Location

Airport or City:

Trip Planner

Search our weather history database for the weather conditions in past years. The results will help you decide how hot, cold, wet, or windy it might be!

Date:

Astronomy

Jan. 11, 2014 Rise Set
Actual Time 7:44 AM IRST 5:30 PM IRST
Civil Twilight 7:15 AM IRST 5:59 PM IRST
Nautical Twilight 6:43 AM IRST 6:31 PM IRST
Astronomical Twilight 6:11 AM IRST 7:03 PM IRST
Moon 1:58 PM IRST 3:29 AM IRST
Length of Visible Light 10h 43m
Length of Day
9h 45m
Waxing Gibbous, 80% of the Moon is Illuminated
Jan 11
Waxing Gibbous
Jan 16
Full
Jan 24
Last Quarter
Jan 31
New
Feb 6
First Quarter

Hourly Weather History & Observations

Time (IRST) Temp. Windchill Dew Point Humidity Pressure Visibility Wind Dir Wind Speed Gust Speed Precip Events Conditions
12:00 AM 15.8 °F - 10.4 °F 79% 30.21 in 1.9 mi West 2.3 mph - N/A   Mostly Cloudy
12:20 AM 15.8 °F 8.6 °F 10.4 °F 79% 30.18 in 1.9 mi West 4.6 mph - N/A   Mostly Cloudy
12:30 AM 15 °F - 10 °F 74% 30.44 in 2 mi West 4.5 mph - -   Mist
1:30 AM 14.0 °F - 8.6 °F 79% 30.18 in 1.9 mi SW 2.3 mph - N/A   Mostly Cloudy
2:30 AM 15.8 °F 8.6 °F 10.4 °F 79% 30.18 in 2.5 mi WSW 4.6 mph - N/A   Mostly Cloudy
3:30 AM 16 °F - 12 °F 77% 30.42 in 2 mi WSW 4.5 mph - -   Mist
3:30 AM 15.8 °F 8.6 °F 12.2 °F 86% 30.18 in 2.5 mi WSW 4.6 mph - N/A   Mostly Cloudy
4:20 AM 15.8 °F - 12.2 °F 86% 30.15 in 1.9 mi WSW 2.3 mph - N/A   Overcast
4:30 AM 15.8 °F - 12.2 °F 86% 30.15 in 1.9 mi WSW 2.3 mph - N/A   Overcast
5:30 AM 14.0 °F - 10.4 °F 86% 30.15 in 1.6 mi WSW 2.3 mph - N/A   Overcast
6:30 AM 12 °F - 9 °F 82% 30.45 in 1 mi West 4.5 mph - -   Mist
6:30 AM 12.2 °F 4.3 °F 8.6 °F 85% 30.15 in 1.2 mi West 4.6 mph - N/A   Mostly Cloudy
7:30 AM 12.2 °F 4.3 °F 8.6 °F 85% 30.15 in 1.6 mi West 4.6 mph - N/A   Mostly Cloudy
8:00 AM 12.2 °F 4.3 °F 8.6 °F 85% 30.15 in 0.9 mi West 4.6 mph - N/A   Mostly Cloudy
8:30 AM 10.4 °F 2.2 °F 6.8 °F 85% 30.15 in 1.6 mi West 4.6 mph - N/A   Mostly Cloudy
9:00 AM 12.2 °F 4.3 °F 8.6 °F 85% 30.15 in 1.2 mi West 4.6 mph - N/A   Mostly Cloudy
9:20 AM 15.8 °F 8.6 °F 8.6 °F 73% 30.18 in 1.2 mi West 4.6 mph - N/A   Haze
9:30 AM 16 °F - 8 °F 59% 30.48 in 1 mi West 4.5 mph - -   Haze
9:30 AM 15.8 °F 8.6 °F 8.6 °F 73% 30.18 in 1.2 mi West 4.6 mph - N/A   Haze
10:00 AM 19.4 °F 12.8 °F 8.6 °F 63% 30.18 in 1.2 mi West 4.6 mph - N/A   Haze
10:30 AM 21.2 °F - 14.0 °F 74% 30.18 in 1.2 mi Calm Calm - N/A   Haze
11:00 AM 23.0 °F 14.7 °F 14.0 °F 68% 30.18 in 1.2 mi North 6.9 mph - N/A   Haze
11:30 AM 21.2 °F 14.9 °F 14.0 °F 74% 30.15 in 1.2 mi NNE 4.6 mph - N/A   Haze
12:00 PM 21.2 °F 14.9 °F 15.8 °F 80% 30.15 in 1.2 mi NNE 4.6 mph - N/A   Haze
12:30 PM 22 °F - 14 °F 59% 30.41 in 1 mi NE 4.5 mph - -   Haze
12:30 PM 21.2 °F 14.9 °F 14.0 °F 74% 30.15 in 1.2 mi NE 4.6 mph - N/A   Haze
1:00 PM 23.0 °F 14.7 °F 14.0 °F 68% 30.15 in 1.2 mi East 6.9 mph - N/A   Haze
1:30 PM 23.0 °F 17.0 °F 15.8 °F 74% 30.09 in 1.2 mi ESE 4.6 mph - N/A   Haze
2:00 PM 23.0 °F 17.0 °F 15.8 °F 74% 30.09 in 1.2 mi East 4.6 mph - N/A   Haze
2:30 PM 23.0 °F 17.0 °F 15.8 °F 74% 30.09 in 1.2 mi East 4.6 mph - N/A   Haze
3:30 PM 25 °F - 17 °F 59% 30.33 in 1 mi East 4.5 mph - -   Haze
3:30 PM 24.8 °F 19.1 °F 15.8 °F 69% 30.09 in 1.2 mi East 4.6 mph - N/A   Haze
4:30 PM 24.8 °F 19.1 °F 17.6 °F 74% 30.09 in 1.2 mi East 4.6 mph - N/A   Haze
5:30 PM 19.4 °F 12.8 °F 15.8 °F 86% 30.09 in 1.2 mi East 4.6 mph - N/A   Haze
6:20 PM 15.8 °F 8.6 °F 14.0 °F 93% 30.09 in 0.5 mi NNW 4.6 mph - N/A Fog Fog
6:30 PM 17 °F - 16 °F 95% 30.41 in 0 mi NNW 4.5 mph - - Fog Partial Fog
7:00 PM 15.8 °F - 14.0 °F 93% 30.09 in 0.5 mi Calm Calm - N/A Fog Fog
7:30 PM 15.8 °F 8.6 °F 14.0 °F 93% 30.12 in 0.4 mi West 4.6 mph - N/A Fog Fog
8:00 PM 14.0 °F 6.5 °F 12.2 °F 93% 30.12 in 0.5 mi West 4.6 mph - N/A Fog Light Freezing Fog
8:30 PM 12.2 °F 4.3 °F 10.4 °F 92% 30.12 in 0.6 mi WSW 4.6 mph - N/A   Partly Cloudy
9:00 PM 12.2 °F 4.3 °F 8.6 °F 85% 30.12 in 0.7 mi West 4.6 mph - N/A   Partly Cloudy
9:30 PM 11 °F - 8 °F 83% 30.44 in 1 mi West 4.5 mph - -   Mist
9:30 PM 12.2 °F 4.3 °F 8.6 °F 85% 30.12 in 0.9 mi West 4.6 mph - N/A   Partly Cloudy
10:00 PM 12.2 °F 4.3 °F 8.6 °F 85% 30.12 in 1.2 mi West 4.6 mph - N/A   Partly Cloudy
10:30 PM 10.4 °F 2.2 °F 6.8 °F 85% 30.12 in 1.2 mi WSW 4.6 mph - N/A   Partly Cloudy
11:00 PM 10.4 °F 2.2 °F 6.8 °F 85% 30.12 in 1.6 mi West 4.6 mph - N/A   Partly Cloudy
11:30 PM 8.6 °F -2.6 °F 5.0 °F 85% 30.12 in 1.9 mi West 6.9 mph - N/A   Partly Cloudy